Location: Saint-Michel-des-Saints
(46.6688°N, 73.9573°W)
Time: 13:34:59
(UTC-04:00)

ISS - Visible Passes

Search period start: 19 March 2019 00:00
Search period end: 29 March 2019 00:00
Orbit: 406 x 411 km, 51.6° (Epoch: 20 March)

Date Brightness Start Highest point End Pass type
(mag) Time Alt. Az. Time Alt. Az. Time Alt. Az.
20 Mar -1.4 20:54:36 10° SSW 20:55:14 14° SSW 20:55:14 14° SSW visible
21 Mar -2.1 20:04:28 10° S 20:06:37 16° SE 20:07:17 15° ESE visible
21 Mar -1.1 21:39:29 10° WSW 21:40:05 14° WSW 21:40:05 14° WSW visible
22 Mar -3.8 20:48:33 10° SW 20:51:47 57° SSE 20:51:55 57° SE visible
23 Mar -3.0 19:57:49 10° SSW 20:00:51 34° SE 20:03:33 12° E visible
23 Mar -2.2 21:34:07 10° W 21:36:19 35° WNW 21:36:19 35° WNW visible
24 Mar -3.7 20:42:57 10° WSW 20:46:14 73° NNW 20:47:45 29° NE visible
24 Mar -0.5 22:20:05 10° WNW 22:20:30 13° WNW 22:20:30 13° WNW visible
25 Mar -3.8 19:51:53 10° SW 19:55:11 73° SSE 19:58:29 10° ENE visible
25 Mar -2.5 21:28:50 10° W 21:31:46 37° NNW 21:31:46 37° NNW visible
26 Mar -2.9 20:37:34 10° W 20:40:46 45° NNW 20:42:56 18° NE visible
26 Mar -0.8 22:14:43 10° WNW 22:15:41 17° NW 22:15:41 17° NW visible
27 Mar -3.3 19:46:20 10° WSW 19:49:35 61° NNW 19:52:52 10° ENE visible
27 Mar -2.4 21:23:30 10° WNW 21:26:33 33° N 21:26:45 32° N visible
28 Mar -2.4 20:32:13 10° WNW 20:35:18 35° N 20:37:45 14° NE visible
28 Mar -1.1 22:09:11 10° WNW 22:10:29 20° NW 22:10:29 20° NW visible
